Probability
0 0 0 0 0 0 0 0 0 0 0 0 0 0 0 0 0 0 0 0 0 0 0 0 0 0 0 0 0 0 0 0 0 0 0 0 0 0 0 0 0 0 0
0 0 0 0 0 0 0 0 0 0 0 0 0 0 0 0 0 0 0 0 0 0 0 0 0 0 0 0 0 0 0 0 0 0 0 0 0 0 0 0 0 0 0
0 0 0 0 0 0 0 0 0 0 0 0 0 0 0 0 0 0 0 0 0 0 0 0 0 0 0 0 0 0 0 0 0 0 0 0 0 0 0 0 0 0 0
0 0 0 0 0 0 0 0 0 0 0 0 0 0 0 0 0 0 0 0 0 0 0 0 0 0 0 0 0 0 0 0 0 0 0 0 0 0 0 0 0 0 0
0 0 0 0 0 0 0 0 0 0 0 0 0 0 0 0 0 0 0 0 0 0 0 0 0 0 0 0 0 0 0 0 0 0 0 0 0 0 0 0 0 0 0
0 0 0 0 0 0 0 0 0 0 0 0 0 0 0 0 0 0 0 0 0 0 0 0 0 0 0 0 0 0 0 0 0 0 0 0 0 0 0 0 0 0 0
0 0 0 0 0 0 0 0 0 0 0 0 0 0 0 0 0 0 0 0 0 0 0 0 0 0 0 0 0 0 0 0 0 0 0 0 0 0 0 0 0 0 0
0 0 0 0 0 0 0 0 0 0 0 0 0 0 0 0 0 0 0 0 0 0 0 0 0 0 0 0 0 0 0 0 0 0 0 0 0 0 0 0 0 0 0
0 0 0 0 0 0 0 0 0 0 0 0 0 0 0 0 0 0 0 0 0 0 0 0 0 0 0 0 0 0 0 0 0 0 0 0 0 0 0 0 0 0 0
0 0 0 0 0 0 0 0 0 0 0 0 0 0 0 0 0 0 0 0 0 0 0 0 0 0 0 0 0 0 0 0 0 0 0 0 0 0 0 0 0 0 0
0 0 0 0 0 0 0 0 0 0 0 0 0 0 0 0 0 0 0 0 0 0 0 0 0 0 0 0 0 0 0 0 0 0 0 0 0 0 0 0 0 0 0
0 0 0 0 0 0 0 0 0 0 0 0 0 0 0 0 0 0 0 0 0 0 0 0 0 0 0 0 0 0 0 0 0 0 0 0 0 0 0 0 0 0 0
0 0 0 0 0 0 0 0 0 0 0 0 0 0 0 0 0 0 0 0 0 0 0 0 0 0 0 0 0 0 0 0 0 0 0 0 0 0 0 0 0 0 0
0 0 0 0 0 0 0 0 0 0 0 0 0 0 0 0 0 0 0 0 0 0 0 0 0 0 0 0 0 0 0 0 0 0 0 0 0 0 0 0 0 0 0
0 0 0 0 0 0 0 0 0 0 0 0 0 0 0 0 0 0 0 0 0 0 0 0 0 0 0 0 0 0 0 0 0 0 0 0 0 0 0 0 0 0 0
0 0 0 0 0 0 0 0 0 0 0 0 0 0 0 0 0 0 0 0 0 0 0 0 0 0 0 0 0 0 0 0 0 0 0 0 0 0 0 0 0 0 0
0 0 0 0 0 0 0 0 0 0 0 0 0 0 0 0 0 0 0 0 0 0 0 0 0 0 0 0 0 0 0 0 0 0 0 0 0 0 0 0 0 0 0
0 0 0 0 0 0 0 0 0 0 0 0 0 0 0 0 0 0 0 0 0 0 0 0 0 0 0 0 0 0 0 0 0 0 0 0 0 0 0 0 0 0 0
0 0 0 0 0 0 0 0 0 0 0 0 0 0 0 0 0 0 0 0 0 0 0 0 0 0 0 0 0 0 0 0 0 0 0 0 0 0 0 0 0 0 0
0 0 0 0 0 0 0 0 0 0 0 0 0 0 0 0 0 0 0 0 0 0 0 0 0 0 0 0 0 0 0 0 0 0 0 0 0 0 0 0 0 0 0
0 0 0 0 0 0 0 0 0 0 0 0 0 0 0 0 0 0 0 0 0 0 0 0 0 0 0 0 0 0 0 0 0 0 0 0 0 0 0 0 0 0 0
0 0 0 0 0 0 0 0 0 0 0 0 0 0 0 0 0 0 0 0 0 0 0 0 0 0 0 0 0 0 0 0 0 0 0 0 0 0 0 0 0 0 0
0 0 0 0 0 0 0 0 0 0 0 0 0 0 0 0 0 0 0 0 0 0 0 0 0 0 0 0 0 0 0 0 0 0 0 0 0 0 0 0 0 0 0
0 0 0 0 0 0 0 0 0 0 0 0 0 0 0 0 0 0 0 0 0 0 0 0 0 0 0 0 0 0 0 0 0 0 0 0 0 0 0 0 0 0 0
0 0 0 0 0 0 0 0 0 0 0 0 0 0 0 0 0 0 0 0 0 0 0 0 0 0 0 0 0 0 0 0 0 0 0 0 0 0 0 0 0 0 0
0 0 0 0 0 0 0 0 0 0 0 0 0 0 0 0 0 0 0 0 0 0 0 0 0 0 0 0 0 0 0 0 0 0 0 0 0 0 0 0 0 0 0
Height
5786 5791 5796 5800 5803 5807 5810 5813 5815 5818 5819 5821 5823 5824 5825 5825 5825 5825 5824 5824 5823 5822 5820 5819 5818 5816 5814 5812 5809 5807 5804 5802 5798 5796 5794 5792 5789 5787 5784 5781 5778 5776 5773
5779 5784 5789 5793 5796 5799 5802 5805 5807 5810 5812 5813 5815 5816 5817 5817 5817 5817 5816 5816 5815 5813 5812 5811 5809 5807 5805 5803 5800 5797 5794 5792 5788 5785 5782 5781 5780 5776 5772 5769 5766 5764 5761
5772 5777 5782 5785 5788 5791 5794 5797 5799 5802 5804 5806 5807 5808 5808 5809 5809 5808 5808 5807 5806 5805 5803 5802 5800 5798 5796 5793 5790 5787 5784 5781 5778 5774 5771 5768 5767 5764 5762 5758 5754 5751 5748
5765 5770 5774 5777 5780 5783 5786 5788 5791 5793 5795 5797 5798 5799 5800 5800 5800 5800 5799 5798 5796 5795 5793 5792 5790 5788 5786 5783 5780 5777 5774 5771 5768 5764 5759 5756 5753 5750 5748 5746 5742 5738 5735
5757 5761 5765 5769 5772 5775 5778 5780 5783 5785 5786 5788 5789 5791 5791 5791 5791 5791 5790 5789 5788 5786 5784 5782 5780 5778 5775 5773 5770 5767 5763 5760 5756 5752 5748 5744 5740 5736 5732 5731 5729 5724 5721
5749 5753 5757 5760 5763 5766 5769 5772 5774 5776 5778 5779 5780 5781 5782 5782 5782 5781 5781 5780 5778 5777 5775 5773 5770 5768 5765 5762 5759 5756 5752 5748 5744 5740 5736 5732 5728 5723 5718 5715 5712 5709 5706
5741 5744 5748 5751 5754 5758 5760 5763 5765 5767 5769 5770 5771 5772 5772 5773 5772 5772 5771 5770 5768 5767 5765 5763 5761 5758 5756 5753 5749 5746 5742 5738 5733 5729 5725 5720 5715 5710 5705 5700 5696 5693 5690
5732 5735 5739 5742 5745 5749 5752 5754 5756 5758 5760 5761 5762 5763 5763 5763 5763 5762 5761 5760 5758 5757 5755 5753 5751 5748 5746 5743 5739 5736 5732 5727 5723 5718 5713 5708 5703 5697 5691 5686 5680 5676 5674
5723 5726 5730 5733 5736 5739 5742 5745 5747 5749 5750 5751 5752 5753 5753 5753 5753 5752 5751 5750 5749 5747 5745 5743 5741 5738 5735 5732 5729 5725 5721 5717 5712 5707 5702 5696 5691 5685 5678 5672 5666 5662 5658
5714 5717 5721 5724 5727 5730 5733 5735 5737 5739 5741 5742 5743 5743 5744 5743 5743 5742 5741 5740 5739 5737 5735 5733 5731 5728 5726 5722 5719 5715 5711 5707 5702 5696 5691 5685 5679 5673 5667 5660 5654 5649 5645
5706 5709 5712 5715 5718 5721 5724 5726 5728 5730 5731 5732 5733 5733 5734 5734 5733 5732 5731 5730 5729 5727 5726 5724 5721 5719 5716 5713 5709 5705 5701 5697 5691 5686 5680 5674 5668 5662 5656 5650 5644 5639 5635
5698 5701 5704 5707 5709 5712 5714 5717 5718 5720 5721 5722 5723 5724 5724 5724 5723 5723 5722 5721 5719 5718 5716 5714 5712 5710 5707 5703 5700 5696 5691 5686 5681 5676 5670 5664 5658 5652 5646 5641 5635 5630 5627
5690 5693 5696 5698 5701 5703 5705 5707 5709 5711 5712 5713 5714 5714 5714 5714 5714 5713 5712 5711 5710 5709 5707 5705 5703 5700 5697 5694 5690 5686 5682 5677 5672 5666 5661 5655 5649 5644 5638 5633 5628 5623 5620
5682 5685 5687 5690 5692 5694 5696 5698 5700 5701 5702 5703 5704 5705 5705 5705 5704 5704 5703 5702 5701 5700 5698 5696 5694 5691 5688 5685 5681 5677 5673 5668 5663 5658 5653 5647 5642 5636 5631 5626 5622 5617 5614
5675 5677 5680 5682 5684 5686 5688 5689 5691 5692 5694 5694 5695 5695 5695 5695 5695 5695 5694 5693 5692 5691 5689 5688 5685 5683 5680 5676 5673 5669 5664 5660 5655 5650 5645 5640 5635 5630 5625 5620 5616 5612 5608
5668 5670 5672 5674 5676 5678 5680 5681 5683 5684 5685 5686 5686 5687 5687 5687 5687 5686 5686 5685 5684 5683 5681 5679 5677 5674 5671 5668 5664 5660 5656 5652 5647 5643 5638 5633 5628 5624 5619 5615 5611 5607 5603
5662 5664 5666 5667 5669 5671 5672 5674 5675 5676 5677 5678 5678 5678 5679 5679 5678 5678 5677 5677 5676 5675 5673 5671 5669 5666 5663 5659 5656 5652 5648 5644 5640 5635 5631 5627 5622 5617 5613 5609 5605 5601 5596
5656 5658 5659 5661 5662 5664 5665 5666 5667 5669 5669 5670 5670 5671 5671 5671 5671 5670 5670 5669 5668 5667 5665 5663 5660 5658 5655 5652 5648 5645 5641 5637 5633 5629 5624 5620 5616 5611 5607 5603 5598 5594 5590
5651 5652 5653 5655 5656 5657 5658 5659 5660 5661 5662 5663 5663 5663 5663 5663 5663 5663 5662 5661 5660 5659 5657 5655 5653 5650 5647 5644 5641 5637 5634 5630 5626 5622 5617 5613 5609 5604 5600 5596 5591 5586 5582
5645 5646 5647 5648 5649 5651 5652 5653 5654 5655 5655 5656 5656 5656 5656 5656 5656 5656 5655 5654 5653 5651 5650 5647 5645 5643 5640 5637 5633 5630 5626 5623 5619 5615 5610 5606 5602 5597 5592 5588 5583 5578 5573
5639 5640 5641 5642 5643 5644 5645 5646 5647 5648 5649 5649 5649 5649 5649 5649 5649 5649 5648 5647 5646 5644 5642 5640 5638 5635 5633 5630 5626 5623 5619 5615 5611 5607 5603 5599 5594 5589 5584 5579 5574 5569 5564
5633 5634 5635 5636 5637 5638 5639 5640 5641 5642 5642 5643 5643 5643 5643 5643 5642 5642 5641 5640 5639 5637 5635 5633 5631 5628 5625 5622 5619 5616 5612 5608 5604 5600 5595 5591 5586 5581 5576 5570 5565 5559 5554
5627 5628 5629 5630 5631 5632 5633 5634 5635 5635 5636 5636 5636 5636 5636 5636 5636 5635 5634 5633 5632 5630 5628 5626 5624 5621 5618 5615 5612 5608 5605 5601 5596 5592 5587 5582 5577 5572 5567 5561 5555 5549 5543
5621 5622 5623 5624 5625 5626 5627 5628 5628 5629 5630 5630 5630 5630 5630 5629 5629 5628 5627 5626 5625 5623 5621 5619 5616 5614 5611 5608 5604 5601 5597 5593 5588 5584 5579 5574 5568 5563 5557 5551 5545 5539 5533
5615 5616 5617 5618 5619 5620 5621 5621 5622 5623 5623 5623 5623 5623 5623 5623 5622 5621 5620 5619 5618 5616 5614 5611 5609 5606 5603 5600 5596 5593 5589 5584 5580 5575 5570 5565 5559 5554 5548 5541 5535 5528 5522
5609 5610 5611 5612 5613 5614 5614 5615 5616 5616 5616 5617 5617 5617 5616 5616 5615 5614 5613 5612 5610 5608 5606 5603 5601 5598 5595 5592 5588 5584 5580 5576 5571 5566 5561 5556 5550 5544 5537 5531 5524 5517 5510
Wind_Speed
44 44 44 43 42 41 40 39 39 38 38 37 37 37 36 36 36 36 36 37 37 38 38 38 39 39 40 41 41 42 43 44 45 46 46 47 47 47 48 49 49 49 49
44 44 43 42 42 41 41 40 40 39 39 38 38 38 38 38 38 38 38 39 39 40 40 40 41 41 42 43 44 45 46 46 47 48 49 49 49 49 50 51 51 52 52
43 43 42 42 42 41 41 41 40 40 40 39 39 39 39 39 39 39 40 40 41 41 42 42 43 43 44 45 45 46 47 48 49 50 51 52 52 52 52 53 53 53 53
43 42 42 42 41 42 42 41 41 41 40 40 40 40 40 40 40 40 41 41 42 42 43 44 44 45 45 46 47 48 48 49 50 51 52 53 54 54 54 54 54 54 54
43 43 43 43 42 42 42 42 42 41 41 41 41 41 41 41 41 41 41 42 43 43 44 45 45 46 47 47 47 48 49 50 51 52 52 53 54 55 56 56 55 55 55
42 43 43 44 43 43 43 43 42 42 42 42 41 42 42 42 42 42 42 43 43 44 44 45 46 46 47 47 47 48 49 50 51 52 53 53 54 54 55 56 56 56 56
41 42 42 43 43 44 43 43 42 42 42 42 42 42 42 42 43 43 43 43 43 44 44 45 45 45 46 46 47 48 48 49 50 50 51 52 53 54 55 56 56 56 55
41 41 41 41 42 43 42 42 42 42 42 42 42 42 42 42 43 43 43 43 43 44 44 44 44 44 45 45 46 46 46 47 48 48 49 51 53 54 54 55 55 55 53
40 40 41 41 41 41 42 42 43 42 42 42 42 42 42 42 42 43 43 43 43 43 43 43 43 43 43 44 44 44 44 45 46 47 49 51 51 52 52 52 52 52 50
39 40 41 41 41 41 42 42 42 42 42 42 42 42 42 42 42 42 42 43 43 42 43 42 42 42 42 42 42 42 43 44 45 46 47 48 47 47 48 48 47 47 47
39 40 41 41 41 41 41 41 42 42 42 41 41 41 41 42 42 42 42 42 41 41 41 41 40 40 40 40 40 40 41 43 43 44 44 43 43 43 44 43 42 42 42
37 39 39 40 40 40 40 40 40 40 41 41 40 40 40 40 40 40 40 40 39 39 39 38 38 38 38 38 38 39 40 41 41 41 40 40 40 41 41 39 38 37 37
35 37 37 38 38 39 39 39 39 39 39 39 39 38 38 38 38 38 38 37 37 36 36 35 35 35 36 36 37 37 38 39 38 37 38 38 37 37 36 35 35 35 34
32 34 35 36 36 36 37 37 37 37 37 37 36 36 36 36 36 35 35 34 34 33 33 33 33 34 34 35 35 36 36 36 35 35 35 34 34 33 32 32 32 32 31
30 31 32 32 33 33 33 33 34 34 34 34 34 34 34 33 33 32 32 32 31 31 32 32 32 32 33 33 34 34 34 33 33 33 32 32 32 31 30 29 29 29 29
26 27 28 28 29 29 30 30 30 30 30 31 31 31 31 31 30 30 30 30 30 30 30 31 31 31 32 32 33 33 32 32 32 31 31 31 30 30 29 29 29 29 29
24 24 25 26 27 27 27 27 27 28 28 28 28 28 28 29 28 28 28 28 28 29 29 29 30 30 30 31 31 31 30 30 30 30 30 30 29 29 29 29 29 30 30
22 23 23 24 24 25 25 26 26 26 26 26 26 27 27 27 27 26 27 27 27 28 29 29 29 29 29 29 29 29 29 30 29 30 30 30 30 30 30 30 31 31 32
21 22 22 23 23 24 24 24 24 24 25 25 25 25 25 25 25 25 26 26 27 27 27 28 28 28 28 28 28 29 29 29 29 29 30 30 31 31 31 32 33 33 34
21 22 22 23 23 23 23 23 23 23 23 24 23 23 23 24 24 24 25 25 26 26 26 27 27 27 27 27 28 28 29 29 29 30 31 31 32 32 33 34 35 36 37
21 22 22 22 22 22 22 22 22 22 22 22 22 22 22 22 23 23 24 24 25 25 25 26 26 26 27 27 28 29 29 30 31 31 32 33 34 34 35 36 37 38 39
21 21 21 21 21 21 21 21 21 21 21 21 21 21 21 22 22 22 23 23 24 24 25 25 26 26 27 27 28 29 30 31 32 33 33 34 35 36 37 37 39 39 40
21 21 21 21 21 21 21 21 21 21 20 20 20 20 20 21 21 22 22 23 23 24 25 25 26 26 27 28 29 30 31 32 33 33 34 35 36 37 38 39 40 41 42
21 21 21 21 21 21 21 21 21 21 20 20 21 21 21 21 21 22 22 23 24 24 25 26 27 27 28 29 30 31 32 32 33 34 35 36 37 38 40 41 42 43 44
21 21 21 21 21 21 21 21 21 21 21 21 21 21 21 21 22 22 23 24 25 25 26 27 28 28 29 30 31 32 32 33 34 35 36 37 39 40 41 42 43 44 45
22 22 21 21 21 21 21 21 21 21 21 21 21 21 21 22 22 23 24 25 26 26 27 28 29 30 30 31 32 32 33 34 35 37 38 39 40 42 43 43 44 45 47
Wind_Direction
227 228 230 233 236 238 240 243 246 248 251 254 257 260 263 266 269 272 275 277 279 281 283 284 286 287 288 289 290 290 290 290 290 289 289 289 289 289 287 286 284 283 282
229 230 232 235 237 240 242 244 246 249 252 255 258 261 264 267 270 272 275 277 279 281 282 284 285 286 287 288 289 290 290 290 290 290 289 289 289 289 288 286 285 284 283
231 232 234 236 238 241 243 246 248 250 253 256 259 262 265 268 270 273 275 277 279 280 281 283 284 285 287 288 289 289 290 290 290 290 290 290 289 288 287 287 286 285 283
233 233 234 236 239 242 244 247 250 252 254 256 259 262 265 267 270 272 275 277 279 280 282 283 284 286 287 288 288 289 290 290 290 290 290 290 290 289 288 287 286 284 283
235 235 236 237 240 242 244 247 250 253 255 258 260 262 265 268 270 272 274 276 277 279 281 283 284 285 287 288 288 289 290 291 291 291 290 290 290 290 289 288 287 285 283
236 237 238 239 241 243 245 247 250 253 256 259 261 263 266 268 270 272 273 275 276 278 280 282 283 285 286 287 288 289 290 291 291 291 291 291 291 290 290 289 288 285 283
236 237 238 239 241 243 246 248 250 252 255 258 261 263 265 267 269 271 273 275 276 278 279 281 283 284 285 286 288 289 290 291 291 292 292 291 292 292 291 290 288 286 284
235 237 239 240 242 244 246 248 250 252 255 257 260 262 265 267 269 271 273 274 276 278 279 281 282 283 285 287 288 289 290 291 292 292 292 293 293 293 293 292 289 287 285
235 237 239 240 242 244 246 248 251 253 255 257 259 262 264 266 268 270 272 274 276 277 279 280 282 284 285 287 288 289 291 293 294 294 294 295 295 295 295 294 291 288 286
236 237 239 241 243 244 246 248 251 253 255 257 259 261 264 266 268 270 272 274 275 276 278 280 282 284 286 287 289 290 292 294 295 295 296 297 297 297 297 297 294 291 288
237 238 240 241 243 244 246 248 251 253 255 257 259 262 264 266 268 270 272 273 274 276 278 279 282 284 286 287 289 291 294 296 297 298 298 300 299 299 299 298 297 294 291
237 239 240 242 244 245 247 249 251 253 255 257 260 262 264 266 268 270 271 273 274 275 277 279 281 284 286 288 290 292 295 297 299 299 300 302 302 301 301 300 299 297 294
239 240 241 243 245 247 248 250 253 254 256 258 260 262 264 266 268 269 271 272 273 275 277 279 281 284 286 289 292 294 297 299 301 301 302 303 304 305 304 303 302 301 298
241 242 243 245 246 248 249 251 253 255 257 258 260 262 264 266 268 269 270 271 273 275 277 280 282 285 288 291 294 296 298 300 302 303 304 305 306 307 308 307 306 304 302
242 243 245 246 247 249 250 252 254 256 257 259 260 262 264 265 267 268 269 271 273 275 278 281 283 286 289 293 296 298 299 300 302 305 306 307 307 308 309 309 308 307 305
243 245 245 246 248 249 250 252 253 255 257 259 260 261 263 264 266 268 269 271 273 276 279 282 284 288 291 294 297 298 299 299 302 304 306 307 308 308 308 309 308 308 307
244 245 245 246 248 249 250 251 253 255 257 258 260 262 263 264 266 268 269 271 274 277 280 283 286 289 292 295 297 298 299 301 303 305 306 306 307 308 308 308 308 308 308
243 245 247 248 249 250 250 251 253 255 256 258 260 262 263 264 266 267 270 273 276 279 282 285 287 289 293 296 297 299 301 302 304 305 306 306 307 307 308 309 309 309 308
245 247 249 249 250 251 252 253 253 255 256 259 261 262 263 264 266 269 272 275 277 280 283 286 288 290 293 295 298 301 302 303 304 306 307 307 308 308 308 308 309 309 308
247 248 249 250 251 251 252 252 253 255 257 259 261 262 263 265 267 270 273 276 279 281 284 286 289 291 293 296 299 301 303 304 305 306 308 308 309 309 309 309 309 309 309
249 250 250 250 250 251 251 252 253 255 258 259 260 262 264 266 268 271 275 278 280 282 285 287 290 292 294 296 299 301 303 304 306 307 308 308 308 309 309 309 310 310 310
249 250 250 249 249 250 251 252 254 255 258 259 261 263 265 267 269 272 275 277 280 283 286 288 291 293 296 298 300 302 304 305 306 307 308 309 309 309 310 310 311 311 311
248 249 249 249 250 251 252 252 253 255 257 259 261 264 266 268 270 273 275 278 281 284 287 289 292 294 296 298 301 302 304 305 306 308 308 309 309 310 311 311 312 312 312
250 251 251 251 252 253 253 253 253 255 257 260 262 264 266 269 271 274 277 279 282 285 287 290 293 295 296 298 301 302 303 305 307 308 309 310 310 311 311 312 312 312 312
249 251 251 251 252 253 254 254 255 256 259 261 263 265 267 270 272 275 277 280 283 285 288 291 293 295 296 298 301 303 304 306 307 309 310 310 311 312 312 312 313 313 313
250 251 253 253 253 254 255 255 256 257 260 262 264 266 268 271 273 276 279 282 284 286 288 291 293 295 296 298 301 303 304 306 307 308 310 310 311 312 312 312 313 314 314